Location: Pcim
(49.7500°N, 19.9670°E)
Time: 22:18:43
(UTC+01:00)

Envisat - Pass Details

Date: 30 November 2023
Orbit: 762 x 764 km, 98.3° (Epoch: 21 February)

Event Time Altitude Azimuth Distance (km) Brightness Sun altitude
Rises 04:03:18 0° 9° (N) 3,243 6.4 -29.9°
Reaches altitude 10° 04:05:41 10° 4° (N) 2,313 5.5 -29.6°
Enters shadow 04:05:51 11° 4° (N) 2,251 5.4 -29.5°
